DAH6578 DAAG-LFLL

Flight info

Callsign DAH6578
Flight time N/A
Altitude 36000
Route PECES DCT MAMOM DCT ELTAN DCT MHN DCT MEROS DCT LAPIT DCT CHELY DCT LUMAS DCT SOFFY DCT MRM DCT MTL
Aircraft B738/M-SDE2E3FGHIRWXY/LB1

Departure

Time 2026-05-01 13:15
Airport Houari Boumediene Airport (DAAG)

Arrival

Time N/A
Airport Lyon Saint-Exupéry Airport (LFLL)
Time Latitude Longitude Altitude Speed Heading
2026-05-01 13:00 36.69685 3.20595 69 ft 0 kts 19°
2026-05-01 13:07 36.69673 3.20590 59 ft 2 kts 20°
2026-05-01 13:07 36.69658 3.20583 61 ft 2 kts 20°
2026-05-01 13:08 36.69642 3.20575 61 ft 2 kts 21°
2026-05-01 13:08 36.69627 3.20568 61 ft 2 kts 24°
2026-05-01 13:08 36.69612 3.20559 61 ft 2 kts 33°
2026-05-01 13:08 36.69602 3.20544 59 ft 2 kts 85°
2026-05-01 13:09 36.69601 3.20540 59 ft 0 kts 89°
2026-05-01 13:10 36.69602 3.20560 64 ft 7 kts 89°
2026-05-01 13:10 36.69602 3.20625 65 ft 8 kts 90°
2026-05-01 13:11 36.69600 3.20701 69 ft 14 kts 93°
2026-05-01 13:11 36.69559 3.20810 69 ft 15 kts 155°
2026-05-01 13:11 36.69464 3.20851 69 ft 14 kts 161°
2026-05-01 13:11 36.69391 3.20919 63 ft 14 kts 106°
2026-05-01 13:12 36.69388 3.21034 69 ft 13 kts 89°
2026-05-01 13:12 36.69389 3.21145 65 ft 13 kts 90°
2026-05-01 13:12 36.69388 3.21251 69 ft 12 kts 90°
2026-05-01 13:12 36.69387 3.21357 69 ft 12 kts 89°
2026-05-01 13:13 36.69387 3.21460 69 ft 12 kts 91°
2026-05-01 13:13 36.69385 3.21560 69 ft 11 kts 90°
2026-05-01 13:13 36.69384 3.21657 69 ft 11 kts 90°
2026-05-01 13:13 36.69383 3.21795 70 ft 18 kts 91°
2026-05-01 13:14 36.69381 3.21949 71 ft 17 kts 90°
2026-05-01 13:14 36.69461 3.22144 77 ft 54 kts 52°
2026-05-01 13:14 36.69850 3.22780 76 ft 128 kts 53°
2026-05-01 13:14 36.70489 3.23834 220 ft 174 kts 50°
2026-05-01 13:15 36.71220 3.25112 945 ft 186 kts 53°
2026-05-01 13:15 36.71960 3.26454 1864 ft 188 kts 54°
2026-05-01 13:15 36.72681 3.27742 2941 ft 180 kts 47°
2026-05-01 13:15 36.73831 3.28514 3361 ft 205 kts
2026-05-01 13:16 36.75337 3.28649 3623 ft 228 kts
2026-05-01 13:16 36.76950 3.28838 4160 ft 236 kts
2026-05-01 13:16 36.78602 3.29117 4756 ft 243 kts
2026-05-01 13:17 36.83905 3.30472 6763 ft 269 kts 14°
2026-05-01 13:17 36.85734 3.31049 7607 ft 273 kts 15°
2026-05-01 13:18 36.89452 3.32324 9292 ft 282 kts 16°
2026-05-01 13:18 36.91352 3.33011 10099 ft 287 kts 16°
2026-05-01 13:18 36.93307 3.33732 10621 ft 303 kts 16°
2026-05-01 13:18 36.95415 3.34522 10807 ft 329 kts 17°
2026-05-01 13:19 36.97684 3.35383 11020 ft 352 kts 17°
2026-05-01 13:19 37.00065 3.36295 11530 ft 363 kts 17°
2026-05-01 13:19 37.04916 3.38170 12954 ft 371 kts 18°
2026-05-01 13:20 37.07398 3.39135 13682 ft 376 kts 18°
2026-05-01 13:20 37.09907 3.40111 14356 ft 380 kts 18°
2026-05-01 13:20 37.12444 3.41100 15027 ft 384 kts 17°
2026-05-01 13:21 37.17591 3.43108 16341 ft 391 kts 17°
2026-05-01 13:21 37.20202 3.44129 16975 ft 395 kts 17°
2026-05-01 13:21 37.22804 3.45146 17601 ft 399 kts 17°
2026-05-01 13:21 37.25462 3.46186 18233 ft 402 kts 17°
2026-05-01 13:22 37.28146 3.47237 18795 ft 406 kts 17°
2026-05-01 13:22 37.30856 3.48299 19341 ft 409 kts 17°
2026-05-01 13:22 37.33584 3.49369 19883 ft 413 kts 17°
2026-05-01 13:22 37.36337 3.50449 20387 ft 416 kts 17°
2026-05-01 13:23 37.39115 3.51540 20892 ft 420 kts 17°
2026-05-01 13:23 37.41919 3.52643 21387 ft 424 kts 16°
2026-05-01 13:23 37.44745 3.53754 21878 ft 428 kts 16°
2026-05-01 13:23 37.47597 3.54877 22359 ft 431 kts 16°
2026-05-01 13:24 37.50421 3.55990 22816 ft 435 kts 16°
2026-05-01 13:24 37.53319 3.57132 23277 ft 438 kts 16°
2026-05-01 13:24 37.56241 3.58286 23715 ft 442 kts 16°
2026-05-01 13:25 37.62143 3.60618 24509 ft 447 kts 16°
2026-05-01 13:25 37.65115 3.61794 24907 ft 449 kts 16°
2026-05-01 13:25 37.68102 3.62977 25286 ft 451 kts 16°
2026-05-01 13:25 37.71107 3.64169 25656 ft 454 kts 16°
2026-05-01 13:26 37.74091 3.65352 26012 ft 456 kts 16°
2026-05-01 13:26 37.77128 3.66558 26371 ft 459 kts 16°
2026-05-01 13:26 37.80183 3.67772 26713 ft 461 kts 16°
2026-05-01 13:26 37.83251 3.68992 27051 ft 464 kts 16°
2026-05-01 13:27 37.86335 3.70220 27380 ft 466 kts 16°
2026-05-01 13:27 37.89438 3.71456 27705 ft 469 kts 16°
2026-05-01 13:27 37.95691 3.73951 28312 ft 474 kts 16°
2026-05-01 13:28 38.01969 3.76460 28915 ft 479 kts 16°
2026-05-01 13:28 38.05151 3.77733 29196 ft 481 kts 16°
2026-05-01 13:29 38.11560 3.80302 29824 ft 484 kts 16°
2026-05-01 13:29 38.17956 3.82871 30659 ft 480 kts 16°
2026-05-01 13:30 38.30652 3.87983 31942 ft 479 kts 15°
2026-05-01 13:31 38.37004 3.90548 32583 ft 479 kts 15°
2026-05-01 13:31 38.46512 3.94395 33545 ft 477 kts 15°
2026-05-01 13:32 38.52975 3.96110 34157 ft 473 kts
2026-05-01 13:33 38.62687 3.97824 34994 ft 470 kts
2026-05-01 13:33 38.69157 3.99010 35545 ft 468 kts
2026-05-01 13:34 38.75594 4.00230 36060 ft 467 kts
2026-05-01 13:34 38.82031 4.01461 36179 ft 468 kts
2026-05-01 13:35 38.91620 4.03297 36184 ft 465 kts
2026-05-01 13:36 39.01196 4.05133 36184 ft 463 kts
2026-05-01 13:36 39.10735 4.06966 36186 ft 462 kts
2026-05-01 13:37 39.17044 4.08182 36189 ft 461 kts
2026-05-01 13:37 39.23393 4.09406 36189 ft 461 kts
2026-05-01 13:38 39.32920 4.11242 36191 ft 462 kts
2026-05-01 13:39 39.39236 4.12461 36195 ft 462 kts
2026-05-01 13:39 39.45605 4.13693 36196 ft 463 kts
2026-05-01 13:40 39.51972 4.14928 36200 ft 463 kts
2026-05-01 13:40 39.58350 4.16167 36205 ft 463 kts
2026-05-01 13:41 39.63648 4.17196 36204 ft 463 kts
2026-05-01 13:41 39.71065 4.18628 36210 ft 463 kts
2026-05-01 13:42 39.77440 4.19861 36212 ft 463 kts
2026-05-01 13:42 39.83806 4.21095 36212 ft 463 kts
2026-05-01 13:43 39.90160 4.22407 36211 ft 463 kts
2026-05-01 13:43 39.96451 4.23913 36216 ft 462 kts
2026-05-01 13:44 40.02769 4.25446 36211 ft 462 kts
2026-05-01 13:44 40.09085 4.26954 36212 ft 461 kts
2026-05-01 13:45 40.15387 4.28447 36211 ft 460 kts
2026-05-01 13:45 40.21683 4.29940 36212 ft 459 kts
2026-05-01 13:46 40.27931 4.31426 36214 ft 459 kts
2026-05-01 13:46 40.34208 4.32922 36217 ft 458 kts
2026-05-01 13:47 40.40480 4.34420 36221 ft 458 kts
2026-05-01 13:47 40.46747 4.35920 36224 ft 458 kts
2026-05-01 13:48 40.52977 4.37408 36217 ft 458 kts
2026-05-01 13:48 40.59244 4.38892 36227 ft 458 kts
2026-05-01 13:49 40.65519 4.40379 36223 ft 458 kts
2026-05-01 13:49 40.71797 4.41871 36220 ft 459 kts
2026-05-01 13:50 40.78037 4.43359 36233 ft 459 kts
2026-05-01 13:50 40.84324 4.44861 36233 ft 460 kts
2026-05-01 13:51 40.90623 4.46369 36235 ft 460 kts
2026-05-01 13:51 40.96924 4.47906 36227 ft 461 kts
2026-05-01 13:52 41.03227 4.49452 36234 ft 461 kts
2026-05-01 13:52 41.09493 4.50987 36237 ft 461 kts
2026-05-01 13:53 41.15801 4.52526 36236 ft 461 kts
2026-05-01 13:53 41.25257 4.54837 36235 ft 460 kts
2026-05-01 13:54 41.31547 4.56380 36240 ft 460 kts
2026-05-01 13:54 41.37793 4.57915 36231 ft 459 kts
2026-05-01 13:55 41.44070 4.59461 36233 ft 458 kts
2026-05-01 13:55 41.50336 4.61007 36240 ft 458 kts
2026-05-01 13:56 41.56556 4.62545 36240 ft 457 kts
2026-05-01 13:56 41.62806 4.64093 36244 ft 457 kts
2026-05-01 13:57 41.69049 4.65642 36244 ft 456 kts
2026-05-01 13:57 41.75277 4.67326 36247 ft 457 kts 12°
2026-05-01 13:58 41.81405 4.69689 36253 ft 458 kts 14°
2026-05-01 13:58 41.87460 4.72178 36251 ft 458 kts 14°
2026-05-01 13:59 41.93560 4.74638 36255 ft 458 kts 13°
2026-05-01 13:59 41.99665 4.77056 36257 ft 457 kts 13°
2026-05-01 14:00 42.05771 4.79463 36258 ft 457 kts 13°
2026-05-01 14:00 42.11832 4.81857 36261 ft 457 kts 13°
2026-05-01 14:01 42.17927 4.84272 36261 ft 456 kts 13°
2026-05-01 14:01 42.24020 4.86692 36268 ft 456 kts 13°
2026-05-01 14:02 42.29963 4.89056 36269 ft 456 kts 13°
2026-05-01 14:02 42.36048 4.91483 36267 ft 456 kts 14°
2026-05-01 14:03 42.42126 4.93911 36272 ft 455 kts 13°
2026-05-01 14:03 42.48201 4.96343 36273 ft 455 kts 13°
2026-05-01 14:04 42.54228 4.98760 36272 ft 455 kts 14°
2026-05-01 14:04 42.59103 5.00719 36275 ft 454 kts 14°
2026-05-01 14:05 42.66147 5.03555 36277 ft 454 kts 14°
2026-05-01 14:05 42.72204 5.06000 36278 ft 454 kts 14°
2026-05-01 14:06 42.78682 5.08621 36279 ft 454 kts 14°
2026-05-01 14:06 42.84125 5.10827 36281 ft 454 kts 14°
2026-05-01 14:07 42.90145 5.13271 36282 ft 455 kts 14°
2026-05-01 14:08 42.99245 5.16974 36280 ft 455 kts 14°
2026-05-01 14:08 43.05311 5.19444 36277 ft 455 kts 14°
2026-05-01 14:09 43.11389 5.21898 36270 ft 455 kts 14°
2026-05-01 14:09 43.16804 5.24090 36271 ft 455 kts 14°
2026-05-01 14:10 43.22878 5.26555 36264 ft 455 kts 14°
2026-05-01 14:10 43.28944 5.29025 36270 ft 454 kts 14°
2026-05-01 14:11 43.35025 5.31308 36251 ft 451 kts
2026-05-01 14:11 43.41216 5.31065 36263 ft 444 kts 345°
2026-05-01 14:11 43.44175 5.29871 36275 ft 442 kts 340°
2026-05-01 14:12 43.49953 5.27157 36256 ft 442 kts 339°
2026-05-01 14:12 43.55772 5.24410 36259 ft 442 kts 340°
2026-05-01 14:13 43.60618 5.22163 36271 ft 442 kts 340°
2026-05-01 14:13 43.67444 5.19030 36266 ft 442 kts 340°
2026-05-01 14:14 43.73251 5.16366 36267 ft 443 kts 340°
2026-05-01 14:14 43.79101 5.13676 36267 ft 443 kts 340°
2026-05-01 14:15 43.84955 5.10977 36268 ft 444 kts 340°
2026-05-01 14:15 43.87903 5.09615 35767 ft 451 kts 340°
2026-05-01 14:15 43.90878 5.08239 35176 ft 450 kts 340°
2026-05-01 14:16 43.93805 5.06885 34529 ft 450 kts 340°
2026-05-01 14:16 43.96780 5.05507 33791 ft 451 kts 340°
2026-05-01 14:16 43.99756 5.04127 33022 ft 451 kts 339°
2026-05-01 14:16 44.02739 5.02742 32271 ft 452 kts 339°
2026-05-01 14:17 44.05719 5.01358 31514 ft 452 kts 339°
2026-05-01 14:17 44.08701 4.99971 30908 ft 450 kts 339°
2026-05-01 14:17 44.11653 4.98597 30383 ft 445 kts 339°
2026-05-01 14:17 44.14579 4.97233 29762 ft 441 kts 339°
2026-05-01 14:18 44.17469 4.95885 29201 ft 436 kts 339°
2026-05-01 14:18 44.20298 4.94564 28647 ft 432 kts 339°
2026-05-01 14:18 44.23126 4.93241 28119 ft 427 kts 339°
2026-05-01 14:18 44.25025 4.92352 27742 ft 424 kts 339°
2026-05-01 14:19 44.28713 4.90624 27036 ft 420 kts 340°
2026-05-01 14:19 44.31472 4.89329 26512 ft 417 kts 339°
2026-05-01 14:19 44.34211 4.88043 25990 ft 414 kts 340°
2026-05-01 14:19 44.36939 4.86760 25478 ft 413 kts 339°
2026-05-01 14:20 44.39653 4.85482 24941 ft 411 kts 340°
2026-05-01 14:20 44.45035 4.82946 23886 ft 410 kts 340°
2026-05-01 14:20 44.47738 4.81671 23267 ft 410 kts 340°
2026-05-01 14:21 44.50434 4.80398 22714 ft 407 kts 340°
2026-05-01 14:21 44.53113 4.79146 22190 ft 405 kts 342°
2026-05-01 14:21 44.55867 4.78332 21648 ft 405 kts 352°
2026-05-01 14:22 44.61478 4.78445 20421 ft 407 kts
2026-05-01 14:22 44.64293 4.78768 19893 ft 405 kts
2026-05-01 14:22 44.67101 4.79097 19385 ft 404 kts
2026-05-01 14:22 44.69900 4.79422 18868 ft 404 kts
2026-05-01 14:23 44.72702 4.79732 18305 ft 404 kts
2026-05-01 14:23 44.75492 4.80032 17760 ft 401 kts
2026-05-01 14:23 44.78267 4.80320 17229 ft 398 kts
2026-05-01 14:23 44.81017 4.80599 16722 ft 395 kts
2026-05-01 14:24 44.83747 4.80878 16252 ft 392 kts
2026-05-01 14:24 44.86423 4.81153 15748 ft 390 kts
2026-05-01 14:24 44.89115 4.81429 15252 ft 387 kts
2026-05-01 14:24 44.91794 4.81703 14764 ft 384 kts
2026-05-01 14:25 44.94449 4.81973 14298 ft 381 kts
2026-05-01 14:25 44.97091 4.82226 13764 ft 380 kts
2026-05-01 14:25 44.99718 4.82507 13251 ft 378 kts
2026-05-01 14:25 45.02324 4.82786 12740 ft 374 kts